Home   Weather   Gary   Past weeks

Flag for USA Past Weather in Gary, Indiana, USA — Yesterday and Last 2 Weeks

Now
79 °F

Sunny.


Feels Like: 79 °F
Forecast: 61 / 79 °F
Wind: 5 mph from South

Location: Lansing Municipal Airport

Current Time: Jul 25, 2017 at 4:09:24 pm

Latest Report: Jul 25, 2017 at 3:35 pm


Visibility: 10 mi

Pressure: 30.19 "Hg

Humidity: 38%

Dew Point: 51 °F

Location of GaryLocation

Past Weather in Gary — Graph

°F

Gary Temperature Yesterday

Maximum temperature yesterday: 72 °F (at 4:35 pm)
Minimum temperature yesterday: 65 °F (at 11:55 pm)
Average temperature yesterday: 69 °F

High & Low Weather Summary for the Past Weeks

 TemperatureHumidityPressure
High89 °F (Jul 23, 2:35 pm)98% (Jul 18, 4:55 am)30.23 "Hg (Jul 18, 4:55 am)
Low54 °F (Jul 18, 4:35 am)28% (Jul 18, 3:55 pm)29.70 "Hg (Jul 22, 8:35 am)
Average73 °F73%30.00 "Hg
* Reported Jul 10 2:15 pm — Jul 25 2:55 pm, Gary. Weather by CustomWeather, © 2017

Note: Actual official high and low records may vary slightly from our data, if they occured in-between our weather recording intervals... More about our weather records

Advertising

Gary Weather History for the Previous 24 Hours

Scroll right to see more
 ConditionsComfort  
Time TempWeatherWind HumidityBarometerVisibility
2:55 pm
Tue, Jul 25
78 °FSunny.3 mph42%30.19 "Hg10 mi
2:35 pm78 °FSunny.8 mph45%30.19 "Hg10 mi
1:55 pm78 °FSunny.8 mph49%30.20 "Hg10 mi
1:35 pm77 °FSunny.8 mph48%30.20 "Hg10 mi
12:55 pm76 °FSunny.6 mph50%30.21 "Hg10 mi
12:35 pm76 °FSunny.9 mph51%30.22 "Hg10 mi
12:15 pm75 °FSunny.7 mph52%30.23 "Hg10 mi
11:55 am76 °FSunny.9 mph50%30.21 "Hg10 mi
11:35 am74 °FSunny.10 mph53%30.21 "Hg10 mi
11:15 am74 °FSunny.10 mph54%30.21 "Hg10 mi
10:55 am74 °FSunny.9 mph56%30.21 "Hg10 mi
10:35 am73 °FSunny.12 mph53%30.22 "Hg10 mi
10:15 am73 °FSunny.9 mph55%30.22 "Hg10 mi
9:55 am72 °FSunny.12 mph56%30.22 "Hg10 mi
9:35 am72 °FSunny.8 mph58%30.22 "Hg10 mi
9:15 am71 °FSunny.7 mph61%30.21 "Hg10 mi
8:55 am70 °FSunny.8 mph64%30.21 "Hg10 mi
8:35 am69 °FSunny.7 mph68%30.21 "Hg10 mi
7:55 am66 °FSunny.5 mph78%30.21 "Hg10 mi
7:35 am65 °FSunny.5 mph80%30.21 "Hg10 mi
7:15 am64 °FSunny.6 mph83%30.20 "Hg10 mi
6:55 am62 °FSunny.3 mph87%30.19 "Hg10 mi
6:35 am61 °FSunny.5 mph90%30.19 "Hg10 mi
6:15 am59 °FSunny.5 mph92%30.18 "Hg10 mi
5:55 am59 °FSunny.3 mph92%30.17 "Hg10 mi
5:35 am59 °FSunny.No wind92%30.18 "Hg10 mi
5:15 am59 °FSunny.No wind91%30.17 "Hg10 mi
4:55 am59 °FSunny.3 mph90%30.16 "Hg10 mi
4:35 am61 °FClear.No wind89%30.17 "Hg10 mi
3:55 am61 °FClear.5 mph92%30.16 "Hg10 mi
3:35 am61 °FClear.No wind90%30.16 "Hg10 mi
3:15 am62 °FClear.No wind88%30.15 "Hg10 mi
2:35 am62 °FClear.5 mph89%30.13 "Hg10 mi
1:55 am62 °FClear.No wind91%30.14 "Hg10 mi
1:35 am61 °FClear.No wind91%30.14 "Hg10 mi
1:15 am61 °FClear.No wind89%30.14 "Hg10 mi
12:55 am64 °FClear.No wind85%30.14 "Hg10 mi
12:35 am64 °FClear.No wind87%30.13 "Hg10 mi
12:15 am65 °FClear.No wind85%30.13 "Hg10 mi
11:55 pm
Mon, Jul 24
65 °FClear.3 mph82%30.12 "Hg10 mi
11:35 pm66 °FClear.3 mph82%30.11 "Hg10 mi
11:15 pm66 °FClear.No wind81%30.12 "Hg10 mi
10:55 pm66 °FClear.5 mph80%30.11 "Hg10 mi
10:35 pm66 °FClear.5 mph80%30.11 "Hg10 mi
9:55 pm66 °FClear.5 mph78%30.11 "Hg10 mi
9:35 pm66 °FClear.3 mph78%30.10 "Hg10 mi
9:15 pm66 °FClear.5 mph78%30.09 "Hg10 mi
8:55 pm66 °FClear.5 mph76%30.08 "Hg10 mi
8:35 pm67 °FClear.6 mph73%30.08 "Hg10 mi
8:15 pm67 °FPassing clouds.5 mph72%30.08 "Hg10 mi
7:55 pm68 °FOvercast.8 mph70%30.08 "Hg10 mi
7:35 pm68 °FPassing clouds.5 mph69%30.08 "Hg10 mi
7:15 pm68 °FPassing clouds.5 mph69%30.08 "Hg10 mi
6:55 pm69 °FPartly sunny.6 mph66%30.08 "Hg10 mi
6:35 pm68 °FScattered clouds.7 mph67%30.07 "Hg10 mi
6:15 pm70 °FScattered clouds.8 mph64%30.06 "Hg10 mi
5:55 pm69 °FScattered clouds.12 mph64%30.06 "Hg10 mi
5:35 pm71 °FScattered clouds.10 mph63%30.05 "Hg10 mi
5:15 pm71 °FPartly sunny.12 mph61%30.05 "Hg10 mi
4:55 pm72 °FOvercast.6 mph61%30.05 "Hg10 mi
4:35 pm72 °FPartly sunny.6 mph60%30.06 "Hg10 mi
4:15 pm72 °FPartly sunny.7 mph61%30.06 "Hg10 mi
Weather by CustomWeather, © 2017

See weather overviewHow to use our weather pages